SCP
0 0 0 0 0 0 0 0 0 0 0 0 0 0 0 0 0 0 0 0 0 0 0 0 0 0 0 0 0 0 0 0 0 0 0 0 0 0 0 0 0 0 0 0
0 0 0 0 0 0 0 0 0 0 0 0 0 0 0 0 1 1 1 0 0 0 0 0 0 0 0 0 0 0 0 0 0 0 0 0 0 0 0 0 0 0 0 0
0 0 0 0 0 0 0 0 0 0 0 0 0 0 0 0 1 1 1 0 0 0 0 0 0 0 0 0 0 0 0 0 0 0 0 0 0 0 0 0 0 0 0 0
0 0 0 0 0 0 0 0 0 0 0 0 0 0 0 0 0 1 1 0 0 0 0 0 0 0 0 0 0 0 0 0 0 0 0 0 0 0 0 0 0 0 0 0
0 0 0 0 0 0 0 0 0 0 0 0 0 1 0 0 0 0 1 0 0 0 0 0 0 0 0 0 0 0 0 0 0 0 0 0 0 0 0 0 0 0 0 0
0 0 0 0 0 0 0 0 0 0 0 0 1 0 0 0 0 0 0 0 0 0 0 0 0 0 0 0 0 0 0 0 0 0 0 0 0 0 0 0 0 0 0 0
0 0 0 0 0 0 0 0 0 0 0 0 1 1 0 0 0 0 0 0 0 0 0 0 0 0 0 0 0 0 0 0 0 0 0 0 0 0 0 0 0 0 0 0
0 0 0 0 0 0 0 0 0 0 0 0 0 0 0 0 0 0 0 0 0 0 0 0 0 0 0 0 0 0 0 0 0 0 0 0 0 0 0 0 0 0 0 0
0 0 0 0 0 0 0 0 0 0 0 0 0 0 0 0 0 0 0 0 0 0 0 0 0 0 0 0 0 0 0 0 0 0 0 0 0 0 0 0 0 0 0 0
0 0 0 0 0 0 0 0 0 0 0 0 0 0 0 0 0 0 0 0 0 0 0 0 0 0 0 0 0 0 0 0 0 0 0 0 0 0 0 0 0 0 0 0
0 0 0 0 0 0 0 1 1 1 0 0 0 0 0 0 0 0 0 0 0 0 0 0 0 0 0 0 0 0 0 0 0 0 0 0 0 0 0 0 0 0 0 -0
0 0 0 0 0 1 1 1 1 1 0 0 0 0 0 0 0 0 0 0 0 0 0 0 0 0 0 0 0 0 0 0 0 0 0 0 0 0 0 -0 -0 -0 -0 -0
0 0 0 0 1 1 1 1 1 0 0 0 0 0 0 0 0 0 0 0 0 0 0 0 0 0 0 0 0 0 0 0 0 0 0 0 0 0 0 0 0 0 -0 -0
0 0 0 0 0 0 0 0 0 0 0 0 0 0 0 0 0 0 0 0 0 0 0 0 0 0 0 0 0 0 0 0 0 0 0 0 0 0 0 0 0 0 0 0
0 0 0 0 0 0 0 0 0 0 0 0 0 0 0 0 0 0 0 0 0 0 0 0 0 0 0 0 0 0 0 0 0 0 0 0 0 0 0 0 0 0 0 0
0 0 0 0 0 0 0 0 0 0 0 0 0 0 0 0 0 0 0 0 0 0 0 0 0 0 0 0 0 0 0 0 0 0 0 0 0 0 0 0 0 0 0 0
0 0 0 0 0 0 0 0 0 0 0 0 0 0 0 0 0 0 0 0 0 0 0 0 0 0 0 0 0 0 0 0 0 0 0 0 0 0 0 0 0 0 0 0
0 0 0 0 0 0 0 0 0 0 1 0 0 0 0 0 0 0 0 0 0 0 0 0 0 0 0 0 0 0 0 0 0 0 0 0 0 0 0 0 0 0 0 0
0 0 0 0 0 0 0 0 0 0 0 0 0 0 0 0 0 0 0 0 0 0 0 0 0 0 0 0 0 0 0 0 0 0 0 0 0 0 0 0 0 0 0 0
0 0 0 0 0 0 0 0 0 0 0 0 0 0 0 0 0 0 0 0 0 0 0 0 0 0 0 0 0 0 0 0 0 0 0 0 0 0 0 0 0 0 0 0
0 0 0 0 0 0 0 0 0 0 0 0 0 0 0 0 0 0 0 0 0 0 0 0 0 0 0 0 0 0 0 0 0 0 0 0 0 0 0 0 0 0 0 0
0 0 0 0 0 0 0 0 0 0 0 0 0 0 0 0 0 0 0 0 0 0 0 0 0 0 0 0 0 0 0 0 0 0 0 0 0 -0 0 -0 -0 -0 -0 -0
0 0 0 0 0 0 0 0 0 0 0 0 0 0 0 0 0 0 0 0 0 0 0 0 0 0 0 0 0 0 0 0 0 0 0 0 -0 0 0 -0 -0 0 -0 0
0 0 0 0 0 0 0 0 0 0 0 0 0 0 0 0 0 0 0 0 0 0 0 0 0 0 0 0 0 0 0 0 0 0 0 -0 -0 0 0 -0 0 0 -0 0
0 0 0 0 0 0 0 0 0 0 0 0 0 0 0 0 0 0 0 0 0 0 0 0 0 0 0 0 0 0 0 0 0 0 -0 -0 0 0 -0 0 -0 0 0 0
0 0 0 0 0 0 0 0 0 0 0 0 0 0 0 0 0 0 0 0 0 0 0 0 0 0 0 0 0 0 0 0 0 0 0 0 0 0 0 0 -0 0 0 0
0 0 0 0 0 0 0 0 0 0 0 0 0 0 0 0 0 0 0 0 0 0 0 0 0 0 0 0 0 0 0 -0 0 0 -0 -0 0 0 0 0 0 0 0 0
Wind_Speed_500mb
42 35 32 36 35 36 35 38 31 27 30 24 26 17 21 17 25 28 29 32 39 44 50 53 58 58 53 50 41 35 27 15 5 21 20 18 25 30 35 37 40 44 47 50
45 44 44 43 44 43 45 46 41 33 31 22 18 8 23 38 41 41 38 39 49 57 60 59 56 57 50 41 38 27 21 10 6 9 13 19 26 31 33 36 39 41 44 46
22 31 36 43 55 47 36 31 35 37 35 35 21 24 33 33 34 34 42 47 55 60 65 68 57 43 43 41 23 20 7 10 6 9 13 19 25 28 30 32 34 39 43 46
7 19 30 27 30 44 45 38 43 32 27 14 20 28 19 31 39 41 51 57 64 69 64 56 51 42 34 30 19 7 3 3 5 9 12 17 21 26 29 33 40 43 41 40
9 13 9 14 12 30 29 41 42 43 36 15 12 14 14 28 36 44 54 59 60 60 59 48 39 29 15 19 13 13 10 3 2 7 12 17 23 26 30 36 38 36 34 34
6 11 21 11 10 19 26 27 17 36 33 29 30 16 9 33 40 51 62 71 64 53 39 29 28 21 23 14 14 12 9 8 10 14 18 23 24 29 32 32 32 33 30 29
10 9 7 11 4 11 19 11 26 41 32 42 18 5 24 44 48 61 74 69 58 41 35 33 29 27 22 23 16 15 11 10 13 17 19 21 22 23 26 27 29 30 30 32
5 11 13 15 16 17 2 4 10 18 29 37 18 29 43 52 61 74 72 65 51 47 41 35 28 22 19 15 12 8 7 8 10 13 14 18 22 25 28 29 27 32 34 35
14 8 2 7 14 6 11 10 13 24 37 47 43 47 56 59 67 78 76 64 54 47 40 33 26 18 12 10 7 7 8 12 15 17 20 23 27 30 30 33 38 42 41 43
5 6 13 18 24 27 22 16 14 23 44 48 52 53 56 60 64 72 66 54 50 40 33 30 24 20 18 16 13 14 16 17 21 18 18 22 26 29 31 32 36 38 40 42
7 16 18 26 24 21 19 19 31 37 44 44 52 54 63 66 73 69 62 59 49 38 33 28 25 21 18 15 18 20 21 20 18 20 22 22 27 32 33 35 35 38 43 47
12 10 10 3 9 16 27 36 43 48 38 39 50 65 69 71 70 66 62 54 48 41 31 26 23 20 17 19 20 17 18 18 20 19 18 19 24 27 32 35 35 38 40 44
4 11 3 25 26 22 30 36 41 40 46 54 48 58 63 68 64 61 57 55 48 39 31 25 21 19 20 23 21 23 21 20 15 12 13 15 15 17 15 20 21 24 28 31
17 15 12 20 20 32 38 37 34 37 41 44 51 56 59 64 64 61 55 48 44 37 30 27 26 22 22 24 25 24 22 19 17 13 8 7 10 12 13 14 17 20 21 22
14 8 15 26 29 31 31 32 32 34 36 39 47 52 59 62 61 53 48 43 38 34 32 31 30 26 26 25 27 28 25 21 15 10 4 2 3 6 10 13 15 18 17 18
32 28 25 24 24 22 21 21 22 28 30 32 39 50 55 54 51 47 43 41 43 40 34 31 27 25 23 24 24 29 29 25 20 15 12 9 6 6 10 14 16 17 18 21
12 8 6 10 17 11 7 6 9 17 26 28 32 43 49 48 43 43 41 35 30 26 22 18 19 27 28 28 26 30 35 33 27 22 18 16 14 12 13 15 17 17 15 16
20 29 25 22 19 16 10 6 6 11 16 22 24 36 46 46 45 45 38 32 30 29 27 24 24 29 33 33 36 38 37 39 34 28 23 20 18 15 14 15 16 15 14 14
23 28 29 29 23 18 12 8 10 14 17 18 21 35 43 44 38 34 28 25 27 32 31 25 25 27 29 33 35 42 48 45 37 33 27 24 22 19 17 15 15 14 15 16
35 35 33 27 22 17 14 11 9 9 12 19 28 36 39 33 25 18 19 24 27 26 23 24 26 25 20 17 20 39 51 51 49 40 29 26 26 21 18 15 13 13 15 17
43 42 37 32 27 22 17 14 11 14 18 24 30 31 27 19 14 18 20 23 22 23 19 24 25 26 21 23 30 36 41 50 49 46 37 32 23 19 15 15 12 14 16 17
48 44 38 32 26 24 19 16 13 16 20 21 21 17 16 20 21 19 17 22 24 21 27 27 25 19 20 23 26 30 31 34 43 47 36 26 25 27 21 19 16 16 19 20
43 37 32 26 21 18 14 12 10 11 13 15 15 15 14 15 16 16 19 23 25 25 35 35 30 30 30 28 25 25 32 34 36 39 36 32 33 26 23 26 24 21 23 21
28 24 21 18 14 11 9 7 6 6 9 13 17 19 21 21 21 19 18 18 20 21 26 26 27 30 31 35 31 28 29 30 30 42 43 30 26 23 21 19 17 20 24 23
23 22 20 17 18 19 20 23 23 19 14 8 1 4 9 11 11 13 16 19 22 24 28 33 36 38 35 35 28 26 24 30 40 42 37 26 23 20 18 19 19 21 22 25
23 21 20 20 22 25 24 23 21 16 12 8 5 7 10 12 12 10 10 12 15 18 21 23 25 28 30 28 23 26 29 26 15 32 28 20 18 17 21 23 21 22 25 28
24 23 21 19 18 20 19 18 16 18 19 16 14 14 13 10 9 9 6 5 2 2 1 5 8 16 22 29 40 38 20 22 20 27 30 25 19 18 18 18 21 24 24 19
Wind_Direction_500mb
231 222 203 218 220 210 216 229 237 254 234 250 248 203 232 219 204 193 181 166 160 152 144 145 152 151 149 143 141 146 139 164 178 235 247 276 282 281 283 284 289 298 297 295
224 223 216 227 231 231 223 230 240 261 265 246 281 200 217 212 201 198 181 166 159 152 145 145 144 141 141 133 133 135 144 150 236 233 292 297 296 294 301 302 302 300 299 300
220 218 225 230 226 228 224 227 229 236 242 260 224 232 223 208 203 190 171 165 156 147 147 149 143 140 131 131 114 143 142 259 219 271 294 297 296 299 302 304 312 314 316 316
140 149 220 246 233 219 217 224 221 228 240 248 238 233 223 202 196 183 169 164 160 152 147 145 141 145 144 149 155 301 221 124 284 311 310 306 319 327 327 329 329 327 327 327
165 195 314 227 204 193 201 236 227 222 235 225 158 149 227 201 192 179 163 155 156 153 149 147 145 149 133 129 160 190 155 147 351 338 350 346 342 339 342 344 342 341 337 332
150 209 238 214 200 209 202 241 205 205 226 192 162 217 231 176 168 155 161 158 157 156 150 144 147 151 178 218 193 134 107 80 39 15 359 351 352 354 353 349 353 354 351 347
163 213 263 267 201 157 202 251 190 197 185 177 192 184 145 154 156 168 162 159 158 159 163 156 154 154 160 151 158 116 93 60 23 4 2 5 6 359 358 8 12 15 15 11
142 199 222 159 134 199 272 187 167 176 182 184 157 140 149 154 159 163 160 161 164 163 159 159 161 160 146 139 94 72 47 36 45 44 46 43 33 28 27 29 22 18 18 23
210 204 13 248 296 295 266 235 192 175 167 163 152 152 152 155 159 162 164 163 161 160 157 155 146 140 150 134 126 118 98 83 77 82 73 57 44 43 38 34 37 36 27 20
203 203 264 273 281 273 270 248 198 168 158 159 150 151 150 151 154 157 160 159 160 165 159 152 154 158 153 144 135 118 111 106 107 90 65 54 50 44 45 50 48 39 31 27
252 266 274 265 257 261 240 192 153 148 158 158 153 152 154 155 157 159 162 165 166 163 162 161 154 143 139 134 132 134 127 119 104 91 82 73 60 55 61 57 56 52 42 40
231 243 241 184 166 181 168 155 150 148 149 159 163 157 159 160 161 163 165 166 167 164 157 151 147 144 145 152 150 148 145 131 119 102 86 75 62 62 64 70 67 59 48 40
274 189 219 137 131 134 141 147 156 154 151 153 158 159 163 162 165 165 168 169 167 162 156 152 148 155 165 168 167 164 158 148 136 114 93 77 68 61 61 51 40 33 27 24
216 159 146 151 137 137 138 135 142 143 147 155 160 165 167 167 169 173 172 170 169 164 160 161 161 159 162 173 175 176 169 162 155 142 121 89 65 49 39 23 23 17 13 19
137 193 145 131 125 129 138 142 143 144 154 159 168 169 171 173 175 174 172 171 172 172 172 171 171 172 169 177 191 190 188 181 177 182 173 115 35 359 357 1 357 357 358 4
89 89 99 111 119 129 142 151 159 163 167 171 174 177 176 179 175 175 176 181 185 185 185 183 181 184 183 187 199 204 203 201 209 220 231 247 287 317 321 324 327 337 342 350
200 49 77 84 101 102 119 191 202 194 183 180 181 182 179 179 181 183 188 194 193 198 198 200 196 202 203 204 206 212 211 214 220 228 240 250 270 293 313 326 329 326 328 337
198 181 178 181 157 142 146 180 197 204 207 204 195 188 188 186 194 198 195 197 203 208 210 208 206 213 220 221 219 221 219 222 225 234 241 250 266 270 290 316 332 328 326 328
171 155 147 148 145 140 146 180 215 222 223 217 197 191 191 193 202 196 201 212 219 228 227 222 222 225 228 235 239 234 232 231 232 237 243 254 263 262 276 290 311 321 323 330
160 154 150 144 141 144 145 140 149 168 174 176 179 179 182 181 181 198 220 250 252 235 214 214 217 213 206 234 256 249 241 237 235 237 240 230 251 261 259 268 277 291 317 326
144 137 131 128 124 118 113 110 114 125 139 157 166 168 170 181 223 256 251 224 212 205 225 206 217 220 234 269 264 256 242 237 235 232 233 238 245 258 249 239 254 285 296 321
128 124 120 119 118 114 108 106 114 138 150 163 178 197 232 257 263 259 248 231 215 232 225 221 214 235 266 262 263 252 242 239 234 228 227 235 237 252 237 240 261 281 293 297
116 117 119 120 121 121 127 138 154 175 198 218 235 248 254 255 260 262 256 247 239 238 230 228 229 239 253 257 264 260 243 239 237 226 210 210 237 241 237 238 255 278 287 298
119 123 125 121 121 123 131 135 151 192 222 238 247 253 256 258 260 258 256 253 248 241 237 233 236 244 251 254 256 262 245 234 218 197 195 215 230 223 229 229 256 278 283 290
126 123 120 114 114 112 114 112 104 95 88 81 76 265 260 254 239 247 251 257 258 259 259 258 257 257 252 246 252 246 221 205 192 194 202 220 209 217 228 253 267 276 289 289
130 126 123 121 125 125 124 115 100 73 35 0 320 284 269 259 249 251 251 253 261 263 260 257 249 243 241 236 231 181 155 149 152 162 143 168 212 231 266 272 259 276 289 298
137 132 123 127 138 145 132 122 97 65 55 71 71 71 80 99 129 139 129 104 6 329 62 147 173 181 177 171 165 158 172 155 148 179 195 214 233 270 279 268 276 293 292 281
Wind_Speed_850mb
42 35 32 36 35 36 35 38 31 27 30 24 26 17 21 17 25 28 29 32 39 44 50 53 58 58 53 50 41 35 27 15 5 21 20 18 25 30 35 37 40 44 47 50
45 44 44 43 44 43 45 46 41 33 31 22 18 8 23 38 41 41 38 39 49 57 60 59 56 57 50 41 38 27 21 10 6 9 13 19 26 31 33 36 39 41 44 46
22 31 36 43 55 47 36 31 35 37 35 35 21 24 33 33 34 34 42 47 55 60 65 68 57 43 43 41 23 20 7 10 6 9 13 19 25 28 30 32 34 39 43 46
7 19 30 27 30 44 45 38 43 32 27 14 20 28 19 31 39 41 51 57 64 69 64 56 51 42 34 30 19 7 3 3 5 9 12 17 21 26 29 33 40 43 41 40
9 13 9 14 12 30 29 41 42 43 36 15 12 14 14 28 36 44 54 59 60 60 59 48 39 29 15 19 13 13 10 3 2 7 12 17 23 26 30 36 38 36 34 34
6 11 21 11 10 19 26 27 17 36 33 29 30 16 9 33 40 51 62 71 64 53 39 29 28 21 23 14 14 12 9 8 10 14 18 23 24 29 32 32 32 33 30 29
10 9 7 11 4 11 19 11 26 41 32 42 18 5 24 44 48 61 74 69 58 41 35 33 29 27 22 23 16 15 11 10 13 17 19 21 22 23 26 27 29 30 30 32
5 11 13 15 16 17 2 4 10 18 29 37 18 29 43 52 61 74 72 65 51 47 41 35 28 22 19 15 12 8 7 8 10 13 14 18 22 25 28 29 27 32 34 35
14 8 2 7 14 6 11 10 13 24 37 47 43 47 56 59 67 78 76 64 54 47 40 33 26 18 12 10 7 7 8 12 15 17 20 23 27 30 30 33 38 42 41 43
5 6 13 18 24 27 22 16 14 23 44 48 52 53 56 60 64 72 66 54 50 40 33 30 24 20 18 16 13 14 16 17 21 18 18 22 26 29 31 32 36 38 40 42
7 16 18 26 24 21 19 19 31 37 44 44 52 54 63 66 73 69 62 59 49 38 33 28 25 21 18 15 18 20 21 20 18 20 22 22 27 32 33 35 35 38 43 47
12 10 10 3 9 16 27 36 43 48 38 39 50 65 69 71 70 66 62 54 48 41 31 26 23 20 17 19 20 17 18 18 20 19 18 19 24 27 32 35 35 38 40 44
4 11 3 25 26 22 30 36 41 40 46 54 48 58 63 68 64 61 57 55 48 39 31 25 21 19 20 23 21 23 21 20 15 12 13 15 15 17 15 20 21 24 28 31
17 15 12 20 20 32 38 37 34 37 41 44 51 56 59 64 64 61 55 48 44 37 30 27 26 22 22 24 25 24 22 19 17 13 8 7 10 12 13 14 17 20 21 22
14 8 15 26 29 31 31 32 32 34 36 39 47 52 59 62 61 53 48 43 38 34 32 31 30 26 26 25 27 28 25 21 15 10 4 2 3 6 10 13 15 18 17 18
32 28 25 24 24 22 21 21 22 28 30 32 39 50 55 54 51 47 43 41 43 40 34 31 27 25 23 24 24 29 29 25 20 15 12 9 6 6 10 14 16 17 18 21
12 8 6 10 17 11 7 6 9 17 26 28 32 43 49 48 43 43 41 35 30 26 22 18 19 27 28 28 26 30 35 33 27 22 18 16 14 12 13 15 17 17 15 16
20 29 25 22 19 16 10 6 6 11 16 22 24 36 46 46 45 45 38 32 30 29 27 24 24 29 33 33 36 38 37 39 34 28 23 20 18 15 14 15 16 15 14 14
23 28 29 29 23 18 12 8 10 14 17 18 21 35 43 44 38 34 28 25 27 32 31 25 25 27 29 33 35 42 48 45 37 33 27 24 22 19 17 15 15 14 15 16
35 35 33 27 22 17 14 11 9 9 12 19 28 36 39 33 25 18 19 24 27 26 23 24 26 25 20 17 20 39 51 51 49 40 29 26 26 21 18 15 13 13 15 17
43 42 37 32 27 22 17 14 11 14 18 24 30 31 27 19 14 18 20 23 22 23 19 24 25 26 21 23 30 36 41 50 49 46 37 32 23 19 15 15 12 14 16 17
48 44 38 32 26 24 19 16 13 16 20 21 21 17 16 20 21 19 17 22 24 21 27 27 25 19 20 23 26 30 31 34 43 47 36 26 25 27 21 19 16 16 19 20
43 37 32 26 21 18 14 12 10 11 13 15 15 15 14 15 16 16 19 23 25 25 35 35 30 30 30 28 25 25 32 34 36 39 36 32 33 26 23 26 24 21 23 21
28 24 21 18 14 11 9 7 6 6 9 13 17 19 21 21 21 19 18 18 20 21 26 26 27 30 31 35 31 28 29 30 30 42 43 30 26 23 21 19 17 20 24 23
23 22 20 17 18 19 20 23 23 19 14 8 1 4 9 11 11 13 16 19 22 24 28 33 36 38 35 35 28 26 24 30 40 42 37 26 23 20 18 19 19 21 22 25
23 21 20 20 22 25 24 23 21 16 12 8 5 7 10 12 12 10 10 12 15 18 21 23 25 28 30 28 23 26 29 26 15 32 28 20 18 17 21 23 21 22 25 28
24 23 21 19 18 20 19 18 16 18 19 16 14 14 13 10 9 9 6 5 2 2 1 5 8 16 22 29 40 38 20 22 20 27 30 25 19 18 18 18 21 24 24 19
Wind_Direction_850mb
231 222 203 218 220 210 216 229 237 254 234 250 248 203 232 219 204 193 181 166 160 152 144 145 152 151 149 143 141 146 139 164 178 235 247 276 282 281 283 284 289 298 297 295
224 223 216 227 231 231 223 230 240 261 265 246 281 200 217 212 201 198 181 166 159 152 145 145 144 141 141 133 133 135 144 150 236 233 292 297 296 294 301 302 302 300 299 300
220 218 225 230 226 228 224 227 229 236 242 260 224 232 223 208 203 190 171 165 156 147 147 149 143 140 131 131 114 143 142 259 219 271 294 297 296 299 302 304 312 314 316 316
140 149 220 246 233 219 217 224 221 228 240 248 238 233 223 202 196 183 169 164 160 152 147 145 141 145 144 149 155 301 221 124 284 311 310 306 319 327 327 329 329 327 327 327
165 195 314 227 204 193 201 236 227 222 235 225 158 149 227 201 192 179 163 155 156 153 149 147 145 149 133 129 160 190 155 147 351 338 350 346 342 339 342 344 342 341 337 332
150 209 238 214 200 209 202 241 205 205 226 192 162 217 231 176 168 155 161 158 157 156 150 144 147 151 178 218 193 134 107 80 39 15 359 351 352 354 353 349 353 354 351 347
163 213 263 267 201 157 202 251 190 197 185 177 192 184 145 154 156 168 162 159 158 159 163 156 154 154 160 151 158 116 93 60 23 4 2 5 6 359 358 8 12 15 15 11
142 199 222 159 134 199 272 187 167 176 182 184 157 140 149 154 159 163 160 161 164 163 159 159 161 160 146 139 94 72 47 36 45 44 46 43 33 28 27 29 22 18 18 23
210 204 13 248 296 295 266 235 192 175 167 163 152 152 152 155 159 162 164 163 161 160 157 155 146 140 150 134 126 118 98 83 77 82 73 57 44 43 38 34 37 36 27 20
203 203 264 273 281 273 270 248 198 168 158 159 150 151 150 151 154 157 160 159 160 165 159 152 154 158 153 144 135 118 111 106 107 90 65 54 50 44 45 50 48 39 31 27
252 266 274 265 257 261 240 192 153 148 158 158 153 152 154 155 157 159 162 165 166 163 162 161 154 143 139 134 132 134 127 119 104 91 82 73 60 55 61 57 56 52 42 40
231 243 241 184 166 181 168 155 150 148 149 159 163 157 159 160 161 163 165 166 167 164 157 151 147 144 145 152 150 148 145 131 119 102 86 75 62 62 64 70 67 59 48 40
274 189 219 137 131 134 141 147 156 154 151 153 158 159 163 162 165 165 168 169 167 162 156 152 148 155 165 168 167 164 158 148 136 114 93 77 68 61 61 51 40 33 27 24
216 159 146 151 137 137 138 135 142 143 147 155 160 165 167 167 169 173 172 170 169 164 160 161 161 159 162 173 175 176 169 162 155 142 121 89 65 49 39 23 23 17 13 19
137 193 145 131 125 129 138 142 143 144 154 159 168 169 171 173 175 174 172 171 172 172 172 171 171 172 169 177 191 190 188 181 177 182 173 115 35 359 357 1 357 357 358 4
89 89 99 111 119 129 142 151 159 163 167 171 174 177 176 179 175 175 176 181 185 185 185 183 181 184 183 187 199 204 203 201 209 220 231 247 287 317 321 324 327 337 342 350
200 49 77 84 101 102 119 191 202 194 183 180 181 182 179 179 181 183 188 194 193 198 198 200 196 202 203 204 206 212 211 214 220 228 240 250 270 293 313 326 329 326 328 337
198 181 178 181 157 142 146 180 197 204 207 204 195 188 188 186 194 198 195 197 203 208 210 208 206 213 220 221 219 221 219 222 225 234 241 250 266 270 290 316 332 328 326 328
171 155 147 148 145 140 146 180 215 222 223 217 197 191 191 193 202 196 201 212 219 228 227 222 222 225 228 235 239 234 232 231 232 237 243 254 263 262 276 290 311 321 323 330
160 154 150 144 141 144 145 140 149 168 174 176 179 179 182 181 181 198 220 250 252 235 214 214 217 213 206 234 256 249 241 237 235 237 240 230 251 261 259 268 277 291 317 326
144 137 131 128 124 118 113 110 114 125 139 157 166 168 170 181 223 256 251 224 212 205 225 206 217 220 234 269 264 256 242 237 235 232 233 238 245 258 249 239 254 285 296 321
128 124 120 119 118 114 108 106 114 138 150 163 178 197 232 257 263 259 248 231 215 232 225 221 214 235 266 262 263 252 242 239 234 228 227 235 237 252 237 240 261 281 293 297
116 117 119 120 121 121 127 138 154 175 198 218 235 248 254 255 260 262 256 247 239 238 230 228 229 239 253 257 264 260 243 239 237 226 210 210 237 241 237 238 255 278 287 298
119 123 125 121 121 123 131 135 151 192 222 238 247 253 256 258 260 258 256 253 248 241 237 233 236 244 251 254 256 262 245 234 218 197 195 215 230 223 229 229 256 278 283 290
126 123 120 114 114 112 114 112 104 95 88 81 76 265 260 254 239 247 251 257 258 259 259 258 257 257 252 246 252 246 221 205 192 194 202 220 209 217 228 253 267 276 289 289
130 126 123 121 125 125 124 115 100 73 35 0 320 284 269 259 249 251 251 253 261 263 260 257 249 243 241 236 231 181 155 149 152 162 143 168 212 231 266 272 259 276 289 298
137 132 123 127 138 145 132 122 97 65 55 71 71 71 80 99 129 139 129 104 6 329 62 147 173 181 177 171 165 158 172 155 148 179 195 214 233 270 279 268 276 293 292 281